Location: Cluj-Napoca
(46.7712°N, 23.6236°E)
Time: 06:38:55
(UTC+03:00)

ISS - Pass Details

Date: 03 April 2020
Orbit: 417 x 423 km, 51.6° (Epoch: 29 March)

Event Time Altitude Azimuth Distance (km) Brightness Sun altitude
Rises 20:24:58 0° 296° (WNW) 2,362 2.2 -5.4°
Reaches altitude 10° 20:27:04 10° 297° (WNW) 1,497 0.7 -5.7°
Maximum altitude 20:30:26 84° 24° (NNE) 424 -3.7 -6.3°
Drops below altitude 10° 20:33:47 10° 114° (ESE) 1,492 -1.6 -6.8°
Enters shadow 20:34:00 - 115° (ESE) 1,580 -1.5 -6.9°
